Dillon, MT

1:33 PM MDT on June 26, 2017 (GMT -0600)
Dillon

Weather History for KDLN - October, 2013

Change the Weather History Date:

Tuesday, October 1, 2013

  Actual Average Record
Temperature  
Mean Temperature 44 °F 49 °F  
Max Temperature 59 °F 63 °F 83 °F (1957)
Min Temperature 29 °F 35 °F 15 °F (1950)
Degree Days  
Heating Degree Days 21    
Month to date heating degree days 21  
Since 1 July heating degree days 268  
Cooling Degree Days 0    
Month to date cooling degree days 0  
Year to date cooling degree days 247  
Moisture  
Dew Point 28 °F    
Average Humidity 55    
Maximum Humidity 79    
Minimum Humidity 31    
Precipitation  
Precipitation 0.00 in 0.03 in 0.58 in (2016)
Month to date precipitation 0.00 0.03  
Year to date precipitation 9.46 9.20  
Snow  
Snow 0.00 in - - ()
Snow Depth 0.00 in    
Sea Level Pressure  
Sea Level Pressure 29.94 in    
Wind  
Wind Speed 8 mph (SW)    
Max Wind Speed 20 mph    
Max Gust Speed 28 mph    
Visibility 10 miles    
Events      
T = Trace of Precipitation, MM = Missing Value Source: NWS Daily Summary

Daily Weather History Graph

Daily Weather History Graph

Search for Another Location

Airport or City:

Trip Planner

Search our weather history database for the weather conditions in past years. The results will help you decide how hot, cold, wet, or windy it might be!

Date:

Astronomy

Oct. 01, 2013 Rise Set
Actual Time 7:28 AM MDT 7:09 PM MDT
Civil Twilight 6:59 AM MDT 7:39 PM MDT
Nautical Twilight 6:25 AM MDT 8:13 PM MDT
Astronomical Twilight 5:50 AM MDT 8:48 PM MDT
Moon 3:58 AM MDT (10/1) 5:22 PM MDT (10/1)
Length of Visible Light 12h 39m
Length of Day
11h 41m
Waning Crescent, 11% of the Moon is Illuminated
Oct 1
Waning Crescent
Oct 4
New
Oct 11
First Quarter
Oct 18
Full
Oct 26
Last Quarter

Hourly Weather History & Observations

Time (MDT) Temp. Windchill Dew Point Humidity Pressure Visibility Wind Dir Wind Speed Gust Speed Precip Events Conditions
12:53 AM 39.0 °F 32.8 °F 24.1 °F 55% 29.95 in 10.0 mi South 9.2 mph - N/A   Clear
1:53 AM 33.1 °F 27.7 °F 25.0 °F 72% 29.95 in 10.0 mi SSW 5.8 mph - N/A   Clear
2:53 AM 34.0 °F 27.2 °F 24.1 °F 67% 29.95 in 10.0 mi South 8.1 mph - N/A   Clear
3:53 AM 30.0 °F 23.2 °F 24.1 °F 79% 29.96 in 10.0 mi SSW 6.9 mph - N/A   Clear
4:53 AM 33.1 °F 24.9 °F 24.1 °F 70% 29.95 in 10.0 mi SSW 10.4 mph - N/A   Clear
5:53 AM 32.0 °F 23.6 °F 24.1 °F 73% 29.96 in 10.0 mi SW 10.4 mph - N/A   Clear
6:53 AM 33.1 °F 25.5 °F 23.0 °F 66% 29.99 in 10.0 mi South 9.2 mph - N/A   Clear
7:53 AM 33.1 °F 24.9 °F 24.1 °F 70% 30.00 in 10.0 mi SSW 10.4 mph - N/A   Clear
8:53 AM 37.0 °F 28.9 °F 26.1 °F 65% 29.99 in 10.0 mi SSW 12.7 mph - N/A   Clear
9:53 AM 43.0 °F 38.2 °F 28.9 °F 58% 29.97 in 10.0 mi SW 8.1 mph - N/A   Overcast
10:53 AM 48.0 °F - 30.0 °F 50% 29.96 in 10.0 mi West 4.6 mph - N/A   Partly Cloudy
11:53 AM 50.0 °F - 30.0 °F 46% 29.93 in 10.0 mi Calm Calm - N/A   Mostly Cloudy
12:53 PM 55.0 °F - 27.0 °F 34% 29.89 in 10.0 mi WSW 15.0 mph 27.6 mph N/A   Clear
1:53 PM 57.0 °F - 28.9 °F 34% 29.89 in 10.0 mi SW 17.3 mph - N/A   Clear
2:53 PM 59.0 °F - 28.9 °F 32% 29.87 in 10.0 mi SW 16.1 mph 21.9 mph N/A   Overcast
3:53 PM 55.9 °F - 30.0 °F 37% 29.88 in 10.0 mi West 9.2 mph - N/A   Overcast
4:53 PM 55.9 °F - 28.9 °F 36% 29.86 in 10.0 mi West 15.0 mph - N/A   Overcast
5:53 PM 54.0 °F - 34.0 °F 47% 29.88 in 10.0 mi Calm Calm - N/A   Overcast
6:53 PM 52.0 °F - 30.9 °F 45% 29.89 in 10.0 mi Calm Calm - N/A   Overcast
7:53 PM 50.0 °F - 33.1 °F 52% 29.91 in 10.0 mi WSW 5.8 mph - N/A   Overcast
8:53 PM 46.9 °F - 33.1 °F 59% 29.94 in 10.0 mi Variable 4.6 mph - N/A   Mostly Cloudy
9:53 PM 42.1 °F 37.7 °F 30.0 °F 62% 29.96 in 10.0 mi SW 6.9 mph - N/A   Clear
10:53 PM 41.0 °F 38.0 °F 30.0 °F 65% 29.98 in 10.0 mi SE 4.6 mph - N/A   Partly Cloudy
11:53 PM 39.9 °F 34.5 °F 33.1 °F 77% 30.01 in 10.0 mi ESE 8.1 mph - N/A   Partly Cloudy